Location: Tucson
(32.2217°N, 110.9265°W)
Time: 00:34:24
(UTC-07:00)

Tiangong 1 - Visible Passes

Search period start: 25 November 2017 00:00
Search period end: 05 December 2017 00:00
Orbit: 283 x 307 km, 42.8° (Epoch: 24 November)

Date Brightness Start Highest point End Pass type
(mag) Time Alt. Az. Time Alt. Az. Time Alt. Az.
25 Nov 3.0 18:51:01 10° WNW 18:52:29 17° NNW 18:52:29 17° NNW visible
26 Nov 3.6 18:58:16 10° NW 18:58:31 11° NW 18:58:31 11° NW visible
03 Dec 2.9 18:05:01 10° N 18:06:01 12° NNE 18:06:37 11° NNE visible
04 Dec 2.4 18:09:37 10° NNW 18:11:24 16° NNE 18:11:51 16° NNE visible
